Faro, Portugal

3:42 AM WET on November 21, 2019 (GMT +0000)
Faro

Weather History for LPFR - September, 2019

Change the Weather History Date:

Tuesday, September 10, 2019

  Actual Average Record
Temperature  
Mean Temperature 72 °F -  
Max Temperature 83 °F 75 °F 88 °F (2018)
Min Temperature 62 °F 61 °F 60 °F (2002)
Cooling Degree Days 8    
Growing Degree Days 22 (Base 50)    
Moisture  
Dew Point 49 °F    
Average Humidity 47    
Maximum Humidity 73    
Minimum Humidity 15    
Precipitation  
Precipitation 0.00 in 0.04 in - ()
Sea Level Pressure  
Sea Level Pressure 30.06 in    
Wind  
Wind Speed 12 mph ()    
Max Wind Speed 20 mph    
Max Gust Speed -    
Visibility 9.4 miles    
Events      
Averages and records for this station are not official NWS values.
T = Trace of Precipitation, MM = Missing Value Source: Averaged Metar Reports

Daily Weather History Graph

Daily Weather History Graph

Search for Another Location

Airport or City:

Astronomy

Sep. 10, 2019 Rise Set
Actual Time 7:09 AM WEST 7:47 PM WEST
Civil Twilight 6:43 AM WEST 8:13 PM WEST
Nautical Twilight 6:12 AM WEST 8:44 PM WEST
Astronomical Twilight 5:40 AM WEST 9:16 PM WEST
Moon 6:09 PM WEST (9/10) 3:29 AM WEST (9/10)
Length of Visible Light 13h 30m
Length of Day
12h 38m
Waxing Gibbous, 88% of the Moon is Illuminated
Sep 10
Waxing Gibbous
Sep 14
Full
Sep 22
Last Quarter
Sep 28
New
Oct 5
First Quarter

Hourly Weather History & Observations

Time (WEST) Temp. Dew Point Humidity Pressure Visibility Wind Dir Wind Speed Gust Speed Precip Events Conditions
12:00 AM 69.8 °F 53.6 °F 56% 30.06 in - NW 15.0 mph - N/A   Clear
12:30 AM 69.8 °F 53.6 °F 56% 30.06 in - WNW 12.7 mph - N/A   Clear
1:00 AM 68 °F 51 °F 43% 30.10 in 12 mi West 8.9 mph - -   Clear
1:00 AM 68.0 °F 50.0 °F 52% 30.06 in - West 12.7 mph - N/A   Clear
1:30 AM 68.0 °F 50.0 °F 52% 30.06 in - WNW 9.2 mph - N/A   Clear
2:00 AM 66 °F 50 °F 47% 30.11 in - WNW 6.7 mph - -  
2:00 AM 66.2 °F 50.0 °F 56% 30.06 in - WNW 8.1 mph - N/A   Clear
2:30 AM 66.2 °F 50.0 °F 56% 30.06 in - WNW 5.8 mph - N/A   Clear
3:00 AM 66 °F 52 °F 51% 30.10 in - NNW 6.7 mph - -  
3:00 AM 66.2 °F 51.8 °F 60% 30.06 in - NNW 6.9 mph - N/A   Clear
3:30 AM 64.4 °F 51.8 °F 64% 30.06 in - NW 10.4 mph - N/A   Clear
4:00 AM 63 °F 53 °F 61% 30.10 in 12 mi WNW 4.5 mph - -   Clear
4:00 AM 62.6 °F 53.6 °F 72% 30.06 in - NW 8.1 mph - N/A   Clear
4:30 AM 64.4 °F 53.6 °F 68% 30.06 in - NW 8.1 mph - N/A   Clear
5:00 AM 64.4 °F 53.6 °F 68% 30.06 in - NW 11.5 mph - N/A   Clear
5:30 AM 64.4 °F 55.4 °F 73% 30.06 in - NW 11.5 mph - N/A   Clear
6:00 AM 64.4 °F 55.4 °F 73% 30.06 in - NW 11.5 mph - N/A   Clear
6:30 AM 64.4 °F 55.4 °F 73% 30.06 in - NW 15.0 mph - N/A   Clear
7:00 AM 65 °F 56 °F 64% 30.09 in 12 mi WNW 11.2 mph - -   Clear
7:00 AM 64.4 °F 55.4 °F 73% 30.06 in - NW 15.0 mph - N/A   Clear
7:30 AM 64.4 °F 55.4 °F 73% 30.06 in - West 12.7 mph - N/A   Clear
8:00 AM 64.4 °F 55.4 °F 73% 30.06 in - WNW 10.4 mph - N/A   Clear
8:30 AM 66.2 °F 57.2 °F 73% 30.09 in - West 11.5 mph - N/A   Clear
9:00 AM 67 °F 56 °F 60% 30.11 in - WNW 8.9 mph - -  
9:00 AM 66.2 °F 55.4 °F 68% 30.09 in 6.2 mi NW 13.8 mph - N/A   Partly Cloudy
9:30 AM 68.0 °F 55.4 °F 64% 30.09 in 6.2 mi WNW 17.3 mph - N/A   Partly Cloudy
10:00 AM 70 °F 56 °F 50% 30.12 in 12 mi WNW 17.9 mph - -   Scattered Clouds
10:00 AM 69.8 °F 55.4 °F 60% 30.09 in 6.2 mi NW 19.6 mph - N/A   Partly Cloudy
10:30 AM 71.6 °F 55.4 °F 57% 30.06 in 6.2 mi WNW 19.6 mph - N/A   Partly Cloudy
11:00 AM 71.6 °F 53.6 °F 53% 30.06 in 6.2 mi WNW 15.0 mph - N/A   Partly Cloudy
11:30 AM 73.4 °F 46.4 °F 38% 30.06 in 6.2 mi WNW 19.6 mph - N/A   Partly Cloudy
12:00 PM 73.4 °F 41.0 °F 31% 30.06 in 6.2 mi WNW 17.3 mph - N/A   Partly Cloudy
12:30 PM 75.2 °F 42.8 °F 31% 30.06 in 6.2 mi WNW 16.1 mph - N/A   Partly Cloudy
1:00 PM 77 °F 41 °F 18% 30.09 in - NW 8.1 mph - -  
1:00 PM 77.0 °F 41.0 °F 28% 30.06 in - NW 16.1 mph - N/A   Clear
1:30 PM 77.0 °F 42.8 °F 29% 30.04 in - NW 15.0 mph - N/A   Clear
2:00 PM 79 °F 44 °F 18% 30.06 in - WNW 13.4 mph - -  
2:00 PM 78.8 °F 42.8 °F 28% 30.04 in - WNW 13.8 mph - N/A   Clear
2:30 PM 78.8 °F 42.8 °F 28% 30.04 in - NNW 12.7 mph - N/A   Clear
3:00 PM 80 °F 42 °F 16% 30.05 in - NW 13.4 mph - -  
3:30 PM 80.6 °F 41.0 °F 24% 30.01 in - NW 12.7 mph - N/A   Clear
4:00 PM 81 °F 44 °F 17% 30.04 in 16 mi North 11.2 mph - -   Clear
4:00 PM 82.4 °F 39.2 °F 21% 30.01 in - North 17.3 mph - N/A   Clear
4:30 PM 82.4 °F 39.2 °F 21% 30.01 in - NNW 17.3 mph - N/A   Clear
5:30 PM 82.4 °F 39.2 °F 21% 30.01 in - NNW 16.1 mph - N/A   Clear
6:00 PM 81 °F 41 °F 15% 30.03 in - North 13.4 mph - -  
6:00 PM 82.4 °F 39.2 °F 21% 30.01 in - NNW 16.1 mph - N/A   Clear
6:30 PM 82.4 °F 39.2 °F 21% 30.01 in - North 15.0 mph - N/A   Clear
7:00 PM 77 °F 50 °F 28% 30.04 in 16 mi NW 15.7 mph - -   Clear
7:00 PM 77.0 °F 48.2 °F 36% 30.01 in - WNW 18.4 mph - N/A   Clear
7:30 PM 75.2 °F 50.0 °F 41% 30.01 in - WNW 17.3 mph - N/A   Clear
8:00 PM 73.4 °F 48.2 °F 41% 30.01 in - WNW 17.3 mph - N/A   Clear
8:30 PM 71.6 °F 50.0 °F 46% 30.04 in - WNW 16.1 mph - N/A   Clear
9:00 PM 70 °F 51 °F 40% 30.08 in - NW 13.4 mph - -  
9:00 PM 69.8 °F 50.0 °F 49% 30.04 in - NW 18.4 mph - N/A   Clear
9:30 PM 68.0 °F 51.8 °F 56% 30.06 in - NW 17.3 mph - N/A   Clear
10:00 PM 67 °F 51 °F 45% 30.10 in 12 mi NW 13.4 mph - -   Clear
10:00 PM 68.0 °F 51.8 °F 56% 30.06 in - NW 15.0 mph - N/A   Clear
10:30 PM 66.2 °F 50.0 °F 56% 30.06 in - NW 13.8 mph - N/A   Clear
11:00 PM 67 °F 49 °F 43% 30.11 in - NNW 11.2 mph - -  
11:00 PM 66.2 °F 50.0 °F 56% 30.06 in - NW 16.1 mph - N/A   Clear
11:30 PM 66.2 °F 50.0 °F 56% 30.09 in - NNW 15.0 mph - N/A   Clear